Satellite: NOAA-17
Catalog number: 27453
Epoch time:      11040.73894807
Element set:    0180
Inclination:      098.3975 deg
RA of node:       086.1986 deg
Eccentricity:    0.0012071
Arg of perigee:   158.3445 deg
Mean anomaly:     201.8251 deg
Mean motion:   14.24234491 rev/day
Decay rate:        6.3e-07 rev/day^2
Epoch rev:           44851
Checksum:              305

Satellite: NOAA-18
Catalog number: 28654
Epoch time:      11040.78530866
Element set:    0666
Inclination:      098.9816 deg
RA of node:       351.7237 deg
Eccentricity:    0.0015143
Arg of perigee:   102.7817 deg
Mean anomaly:     257.5045 deg
Mean motion:   14.11433689 rev/day
Decay rate:       1.16e-06 rev/day^2
Epoch rev:           29495
Checksum:              325

Satellite: NOAA-19
Catalog number: 33591
Epoch time:      11040.75437210
Element set:    0858
Inclination:      098.8155 deg
RA of node:       343.1309 deg
Eccentricity:    0.0013898
Arg of perigee:   340.4385 deg
Mean anomaly:     019.6265 deg
Mean motion:   14.11128524 rev/day
Decay rate:       3.11e-06 rev/day^2
Epoch rev:           10341
Checksum:              284

/EX
SB KEPS @ AMSAT  $ORB11041.M
Orbital Elements  11041.MISC

HR AMSAT ORBITAL ELEMENTS FOR MANNED AND MISCELLANEOUS SATELLITES
FROM WA5QGD FORT WORTH,TX February 10, 2011
Send Subscribe/unsubscribe to KEPS at http://www.amsat.org/mailman/listinfo/kep
BID: ORB11041.M
TO ALL RADIO AMATEURS BT

Satellite: HUBBLE
Catalog number: 20580
Epoch time:      11041.60843290
Element set:     712
Inclination:      028.4694 deg
RA of node:       123.1746 deg
Eccentricity:    0.0003504
Arg of perigee:   211.1712 deg
Mean anomaly:     148.8749 deg
Mean motion:   15.01157440 rev/day
Decay rate:       6.40e-06 rev/day^2
Epoch rev:           94061
Checksum:              256

Satellite: ISS
Catalog number: 25544
Epoch time:      11042.01601058
Element set:     800
Inclination:      051.6449 deg
RA of node:       087.8999 deg
Eccentricity:    0.0004517
Arg of perigee:   299.5128 deg
Mean anomaly:     132.8333 deg
Mean motion:   15.72288264 rev/day
Decay rate:      3.529e-05 rev/day^2
Epoch rev:           70104
Checksum:              296

Satellite: CO-58
Catalog number: 28895
Epoch time:      11040.66570968
Element set:    0797
Inclination:      097.9860 deg
RA of node:       281.8492 deg
Eccentricity:    0.0016696
Arg of perigee:   260.0426 deg
Mean anomaly:     099.8900 deg
Mean motion:   14.60004879 rev/day
Decay rate:       2.18e-06 rev/day^2
Epoch rev:           28163
Checksum:              357

Satellite: FALCON
Catalog number: 30776
Epoch time:      11040.35488663
Element set:      18
Inclination:      035.4336 deg
RA of node:       043.9381 deg
Eccentricity:    0.0000635
Arg of perigee:   022.3295 deg
Mean anomaly:     337.7517 deg
Mean motion:   15.04102506 rev/day
Decay rate:      1.006e-05 rev/day^2
Epoch rev:           21578
Checksum:              265

Satellite: MAST
Catalog number: 31126
Epoch time:      11041.66331871
Element set:      81
Inclination:      097.9087 deg
RA of node:       075.9612 deg
Eccentricity:    0.0094272
Arg of perigee:   203.9249 deg
Mean anomaly:     155.7548 deg
Mean motion:   14.53671523 rev/day
Decay rate:       1.43e-06 rev/day^2
Epoch rev:           20270
Checksum:              287

Satellite: CAPE1
Catalog number: 31130
Epoch time:      11040.63469993
Element set:     100
Inclination:      097.9125 deg
RA of node:       071.9553 deg
Eccentricity:    0.0102038
Arg of perigee:   216.9233 deg
Mean anomaly:     142.4906 deg
Mean motion:   14.52287734 rev/day
Decay rate:       1.00e-06 rev/day^2
Epoch rev:           20212
Checksum:              254

Satellite: COMPASS
Catalog number: 32787
Epoch time:      11041.63999120
Element set:     906
Inclination:      097.8634 deg
RA of node:       107.7488 deg
Eccentricity:    0.0014943
Arg of perigee:   226.5742 deg
Mean anomaly:     133.4173 deg
Mean motion:   14.82134656 rev/day
Decay rate:       4.71e-06 rev/day^2
Epoch rev:           15081
Checksum:              307

Satellite: AAUSAT2
Catalog number: 32788
Epoch time:      11040.67359542
Element set:    0894
Inclination:      097.8644 deg
RA of node:       106.9844 deg
Eccentricity:    0.0014380
Arg of perigee:   231.4022 deg
Mean anomaly:     128.5941 deg
Mean motion:   14.82295508 rev/day
Decay rate:       5.96e-06 rev/day^2
Epoch rev:           15068
Checksum:              321

Satellite: DO-64
Catalog number: 32789
Epoch time:      11040.71591148
Element set:    0912
Inclination:      097.8725 deg
RA of node:       107.8114 deg
Eccentricity:    0.0014650
Arg of perigee:   228.9534 deg
Mean anomaly:     131.0390 deg
Mean motion:   14.82582343 rev/day
Decay rate:       5.39e-06 rev/day^2
Epoch rev:           15069
Checksum:              307

Satellite: CO-66
Catalog number: 32791
Epoch time:      11040.68704041
Element set:    0896
Inclination:      097.8639 deg
RA of node:       106.7878 deg
Eccentricity:    0.0015219
Arg of perigee:   229.1772 deg
Mean anomaly:     130.8123 deg
Mean motion:   14.81876202 rev/day
Decay rate:       5.61e-06 rev/day^2
Epoch rev:           15062
Checksum:              313

